When you browse on this site, cookies collect data to enhance your experience and personalize the content and advertising you see.
Visit our Privacy Policy to learn more. By continuing to use the site, you agree to this use of cookies and data.
  • In Hungary
  • List of Countries
  • For 7 days
  • Water Temperature
  • Weather Map
  • News
  • Weather Widgets
  • user-avatar
    Login

    Hourly Weather Valparaiso

    Today, 31 May, Sunday

    Time Temperature Precipitation Wind Pressure Humidity
    00:00 +18°C° 0.4 mm 0 mps 648 mmHg 97%
    01:00 +17°C° 0.4 mm 0 mps 648 mmHg 98%
    02:00 +17°C° 0.3 mm 0 mps 647 mmHg 98%
    03:00 +17°C° 0.3 mm 0 mps 647 mmHg 98%
    04:00 +17°C° 0.3 mm 0 mps 647 mmHg 98%
    05:00 +17°C° 0 mm 0 mps 647 mmHg 98%
    06:00 +17°C° 0 mm 0 mps 648 mmHg 97%
    07:00 +18°C° 0 mm 0 mps 648 mmHg 97%
    08:00 +20°C° 0.1 mm 0 mps 649 mmHg 89%
    09:00 +22°C° 0.1 mm 0 mps 649 mmHg 81%
    10:00 +25°C° 0.1 mm 1 mps 650 mmHg 73%
    11:00 +26°C° 0.9 mm 1 mps 649 mmHg 74%
    12:00 +24°C° 0.9 mm 0 mps 649 mmHg 76%
    13:00 +24°C° 0.9 mm 0 mps 648 mmHg 78%
    14:00 +24°C° 1.6 mm 0 mps 648 mmHg 83%
    15:00 +23°C° 1.6 mm 0 mps 647 mmHg 87%
    16:00 +22°C° 1.6 mm 0 mps 647 mmHg 92%
    17:00 +23°C° 1.3 mm 1 mps 647 mmHg 94%
    18:00 +22°C° 1.3 mm 1 mps 647 mmHg 96%
    19:00 +20°C° 1.3 mm 1 mps 647 mmHg 97%
    20:00 +18°C° 1.2 mm 0 mps 647 mmHg 98%
    21:00 +18°C° 1.2 mm 0 mps 648 mmHg 98%
    22:00 +18°C° 1.2 mm 0 mps 648 mmHg 98%
    23:00 +18°C° 4.4 mm 0 mps 648 mmHg 99%

    Tomorrow, 1 June, Monday

    Time Temperature Precipitation Wind Pressure Humidity
    00:00 +18°C° 4.4 mm 0 mps 648 mmHg 99%
    01:00 +18°C° 4.4 mm 0 mps 647 mmHg 99%
    02:00 +18°C° 3.8 mm 0 mps 647 mmHg 99%
    03:00 +17°C° 3.8 mm 0 mps 647 mmHg 99%
    04:00 +17°C° 3.8 mm 0 mps 647 mmHg 99%
    05:00 +17°C° 0.5 mm 0 mps 647 mmHg 99%
    06:00 +17°C° 0.5 mm 0 mps 648 mmHg 99%
    07:00 +18°C° 0.5 mm 0 mps 648 mmHg 99%
    08:00 +18°C° 0.3 mm 0 mps 648 mmHg 98%
    09:00 +18°C° 0.3 mm 0 mps 649 mmHg 97%
    10:00 +19°C° 0.3 mm 0 mps 649 mmHg 96%
    11:00 +19°C° 0.2 mm 0 mps 649 mmHg 93%
    12:00 +22°C° 0.2 mm 1 mps 648 mmHg 90%
    13:00 +22°C° 0.2 mm 1 mps 648 mmHg 87%
    14:00 +21°C° 0.1 mm 0 mps 647 mmHg 82%
    15:00 +22°C° 0.1 mm 0 mps 647 mmHg 76%
    16:00 +23°C° 0.1 mm 0 mps 647 mmHg 71%
    17:00 +21°C° 0 mm 0 mps 647 mmHg 78%
    18:00 +20°C° 0 mm 0 mps 646 mmHg 85%
    19:00 +18°C° 0 mm 0 mps 646 mmHg 92%
    20:00 +18°C° 0 mm 0 mps 647 mmHg 91%
    21:00 +18°C° 0 mm 0 mps 647 mmHg 91%
    22:00 +18°C° 0 mm 0 mps 648 mmHg 91%
    23:00 +18°C° 0.1 mm 0 mps 648 mmHg 92%

    Day after tomorrow, 2 June, Tuesday

    Time Temperature Precipitation Wind Pressure Humidity
    00:00 +17°C° 0.1 mm 0 mps 647 mmHg 92%
    01:00 +17°C° 0.1 mm 0 mps 647 mmHg 93%
    02:00 +17°C° 0 mm 0 mps 647 mmHg 93%
    03:00 +17°C° 0 mm 0 mps 647 mmHg 93%
    04:00 +17°C° 0 mm 0 mps 646 mmHg 94%
    05:00 +17°C° 0 mm 0 mps 647 mmHg 92%
    06:00 +18°C° 0 mm 0 mps 647 mmHg 91%
    07:00 +18°C° 0 mm 0 mps 647 mmHg 89%
    08:00 +20°C° 0.1 mm 0 mps 648 mmHg 82%
    09:00 +22°C° 0.1 mm 0 mps 649 mmHg 74%
    10:00 +26°C° 0.1 mm 1 mps 650 mmHg 67%
    11:00 +26°C° 1.1 mm 1 mps 649 mmHg 70%
    12:00 +25°C° 1.1 mm 0 mps 648 mmHg 73%
    13:00 +25°C° 1.1 mm 0 mps 648 mmHg 76%
    14:00 +24°C° 1.5 mm 0 mps 647 mmHg 82%
    15:00 +23°C° 1.5 mm 0 mps 646 mmHg 87%
    16:00 +22°C° 1.5 mm 0 mps 646 mmHg 92%
    17:00 +21°C° 1.1 mm 0 mps 646 mmHg 94%
    18:00 +22°C° 1.1 mm 1 mps 646 mmHg 96%
    19:00 +20°C° 1.1 mm 1 mps 646 mmHg 97%
    20:00 +20°C° 0.8 mm 1 mps 646 mmHg 97%
    21:00 +18°C° 0.8 mm 0 mps 647 mmHg 97%
    22:00 +17°C° 0.8 mm 0 mps 647 mmHg 97%
    23:00 +17°C° 1 mm 0 mps 647 mmHg 97%

    3 June, Wednesday

    Time Temperature Precipitation Wind Pressure Humidity
    00:00 +17°C° 1 mm 0 mps 646 mmHg 98%
    01:00 +17°C° 1 mm 0 mps 646 mmHg 98%
    02:00 +17°C° 0.5 mm 0 mps 646 mmHg 98%
    03:00 +17°C° 0.5 mm 0 mps 646 mmHg 98%
    04:00 +17°C° 0.5 mm 0 mps 646 mmHg 98%
    05:00 +18°C° 0.2 mm 0 mps 646 mmHg 98%
    06:00 +18°C° 0.2 mm 0 mps 647 mmHg 98%
    07:00 +18°C° 0.2 mm 0 mps 647 mmHg 98%
    08:00 +18°C° 0.5 mm 0 mps 647 mmHg 97%
    09:00 +19°C° 0.5 mm 0 mps 648 mmHg 96%
    10:00 +20°C° 0.5 mm 0 mps 648 mmHg 95%
    11:00 +20°C° 0.8 mm 0 mps 648 mmHg 93%
    12:00 +21°C° 0.8 mm 0 mps 647 mmHg 91%
    13:00 +22°C° 0.8 mm 0 mps 647 mmHg 89%
    14:00 +22°C° 1.3 mm 0 mps 646 mmHg 91%
    15:00 +23°C° 1.3 mm 1 mps 646 mmHg 92%
    16:00 +23°C° 1.3 mm 1 mps 646 mmHg 94%
    17:00 +22°C° 0.9 mm 1 mps 646 mmHg 95%
    18:00 +21°C° 0.9 mm 1 mps 646 mmHg 97%
    19:00 +20°C° 0.9 mm 1 mps 646 mmHg 98%
    20:00 +18°C° 0.5 mm 0 mps 646 mmHg 98%
    21:00 +18°C° 0.5 mm 0 mps 647 mmHg 98%
    22:00 +18°C° 0.5 mm 0 mps 647 mmHg 98%
    23:00 +17°C° 4 mm 0 mps 647 mmHg 99%

    4 June, Thursday

    Time Temperature Precipitation Wind Pressure Humidity
    00:00 +17°C° 4 mm 0 mps 647 mmHg 99%
    01:00 +17°C° 4 mm 0 mps 646 mmHg 99%
    02:00 +17°C° 3.5 mm 0 mps 646 mmHg 99%
    03:00 +17°C° 3.5 mm 0 mps 646 mmHg 99%
    04:00 +17°C° 3.5 mm 0 mps 646 mmHg 99%
    05:00 +17°C° 1.1 mm 0 mps 646 mmHg 99%
    06:00 +17°C° 1.1 mm 0 mps 646 mmHg 99%
    07:00 +16°C° 1.1 mm 0 mps 647 mmHg 98%
    08:00 +17°C° 0.7 mm 0 mps 647 mmHg 98%
    09:00 +18°C° 0.7 mm 0 mps 647 mmHg 97%
    10:00 +18°C° 0.7 mm 0 mps 648 mmHg 96%
    11:00 +19°C° 0.3 mm 0 mps 648 mmHg 92%
    12:00 +20°C° 0.3 mm 0 mps 647 mmHg 87%
    13:00 +21°C° 0.3 mm 0 mps 647 mmHg 82%
    14:00 +21°C° 0 mm 0 mps 647 mmHg 79%
    15:00 +21°C° 0 mm 0 mps 646 mmHg 77%
    16:00 +22°C° 0 mm 0 mps 646 mmHg 74%
    17:00 +20°C° 0 mm 0 mps 646 mmHg 80%
    18:00 +19°C° 0 mm 0 mps 646 mmHg 86%
    19:00 +18°C° 0 mm 0 mps 646 mmHg 92%
    20:00 +18°C° 0.1 mm 0 mps 646 mmHg 93%
    21:00 +17°C° 0.1 mm 0 mps 647 mmHg 94%
    22:00 +17°C° 0.1 mm 0 mps 647 mmHg 95%
    23:00 +17°C° 0 mm 0 mps 647 mmHg 94%

    5 June, Friday

    Time Temperature Precipitation Wind Pressure Humidity
    00:00 +17°C° 0 mm 0 mps 646 mmHg 94%
    01:00 +16°C° 0 mm 0 mps 646 mmHg 94%
    02:00 +16°C° 0 mm 0 mps 646 mmHg 94%
    03:00 +16°C° 0 mm 0 mps 646 mmHg 95%
    04:00 +16°C° 0 mm 0 mps 645 mmHg 95%
    05:00 +16°C° 0 mm 0 mps 646 mmHg 92%
    06:00 +17°C° 0 mm 0 mps 646 mmHg 89%
    07:00 +18°C° 0 mm 0 mps 647 mmHg 87%
    08:00 +20°C° 0 mm 0 mps 648 mmHg 77%
    09:00 +25°C° 0 mm 1 mps 648 mmHg 67%
    10:00 +27°C° 0 mm 1 mps 649 mmHg 57%
    11:00 +28°C° 0.4 mm 1 mps 648 mmHg 57%
    12:00 +27°C° 0.4 mm 0 mps 648 mmHg 58%
    13:00 +28°C° 0.4 mm 0 mps 647 mmHg 58%
    14:00 +27°C° 1.1 mm 0 mps 647 mmHg 65%
    15:00 +28°C° 1.1 mm 1 mps 646 mmHg 71%
    16:00 +27°C° 1.1 mm 1 mps 646 mmHg 78%
    17:00 +25°C° 1.5 mm 1 mps 646 mmHg 84%
    18:00 +23°C° 1.5 mm 1 mps 646 mmHg 90%
    19:00 +21°C° 1.5 mm 1 mps 646 mmHg 96%
    20:00 +21°C° 1.5 mm 1 mps 646 mmHg 97%
    21:00 +20°C° 1.5 mm 1 mps 647 mmHg 97%
    22:00 +18°C° 1.5 mm 0 mps 647 mmHg 98%
    23:00 +18°C° 1.2 mm 0 mps 647 mmHg 98%
    Show more